TimeCST,TemperatureF,Dew PointF,Humidity,Sea Level PressureIn,VisibilityMPH,Wind Direction,Wind SpeedMPH,Gust SpeedMPH,PrecipitationIn,Events,Conditions,WindDirDegrees,DateUTC
12:53 AM,55.0,46.0,72,30.25,10.0,NW,4.6,-,N/A,,Overcast,320,2013-02-03 06:53:00
1:53 AM,52.0,43.0,71,30.24,10.0,Calm,Calm,-,N/A,,Scattered Clouds,0,2013-02-03 07:53:00
2:53 AM,48.0,44.1,86,30.23,10.0,Calm,Calm,-,N/A,,Mostly Cloudy,0,2013-02-03 08:53:00
3:53 AM,45.0,42.1,90,30.23,10.0,Calm,Calm,-,N/A,,Clear,0,2013-02-03 09:53:00
4:53 AM,42.1,39.9,92,30.23,10.0,Calm,Calm,-,N/A,,Clear,0,2013-02-03 10:53:00
5:53 AM,41.0,37.9,89,30.25,10.0,Calm,Calm,-,N/A,,Clear,0,2013-02-03 11:53:00
6:53 AM,37.9,36.0,93,30.27,9.0,Calm,Calm,-,N/A,,Clear,0,2013-02-03 12:53:00
7:53 AM,43.0,39.0,86,30.28,10.0,Calm,Calm,-,N/A,,Clear,0,2013-02-03 13:53:00
8:53 AM,51.1,43.0,74,30.28,10.0,Calm,Calm,-,N/A,,Clear,0,2013-02-03 14:53:00
9:53 AM,57.9,39.9,51,30.29,10.0,WNW,5.8,-,N/A,,Clear,300,2013-02-03 15:53:00
10:53 AM,62.1,34.0,35,30.27,10.0,NW,9.2,-,N/A,,Clear,310,2013-02-03 16:53:00
11:53 AM,64.0,32.0,30,30.24,10.0,West,10.4,-,N/A,,Clear,280,2013-02-03 17:53:00
12:53 PM,66.0,28.0,24,30.20,10.0,North,9.2,-,N/A,,Clear,350,2013-02-03 18:53:00
1:53 PM,66.9,25.0,21,30.18,10.0,NNW,11.5,19.6,N/A,,Clear,340,2013-02-03 19:53:00
2:53 PM,68.0,25.0,20,30.16,10.0,NNW,12.7,17.3,N/A,,Clear,330,2013-02-03 20:53:00
3:53 PM,68.0,26.1,21,30.14,10.0,West,11.5,-,N/A,,Clear,280,2013-02-03 21:53:00
4:53 PM,66.0,26.1,22,30.14,10.0,WNW,8.1,-,N/A,,Clear,300,2013-02-03 22:53:00
5:53 PM,61.0,28.0,29,30.14,10.0,West,3.5,-,N/A,,Clear,270,2013-02-03 23:53:00
6:53 PM,51.1,35.1,54,30.15,10.0,Calm,Calm,-,N/A,,Clear,0,2013-02-04 00:53:00
7:53 PM,48.0,37.9,68,30.16,10.0,Calm,Calm,-,N/A,,Clear,0,2013-02-04 01:53:00
8:53 PM,44.1,37.0,76,30.17,10.0,Calm,Calm,-,N/A,,Clear,0,2013-02-04 02:53:00
9:53 PM,44.1,37.0,76,30.17,10.0,Calm,Calm,-,N/A,,Clear,0,2013-02-04 03:53:00
10:53 PM,42.1,36.0,79,30.17,10.0,Calm,Calm,-,N/A,,Clear,0,2013-02-04 04:53:00
11:53 PM,41.0,35.1,79,30.15,10.0,Calm,Calm,-,N/A,,Clear,0,2013-02-04 05:53:00